This demonstration page uses our WeatherBlox Daily Observations layout. Learn more.

Left ArrowRight Arrow

Hourly Observations for May 28, 2021

Temp ( °F °C ) Dew Point ( °F °C ) Humidity (%) Winds ( mph kmh ) Pressure ( in mb ) Visibility ( mi km ) Precip ( " mm )
12:53 am 00:53 Mostly Cloudy 73 22.8 62 16.7 69 69 VRB 3 6 29.90 1013 10 16 N/A
1:53 am 01:53 Clear 72 22.2 61 16.1 68 68 N N/A 29.88 1012 10 16 N/A
2:53 am 02:53 Cloudy with Light Rain 68 20 64 17.8 87 87 N N/A 29.86 1011 6 10 0.01 0.25
3:53 am 03:53 Cloudy 67 19.4 65 18.3 93 93 N N/A 29.84 1011 7 11 0.00 0.00
4:53 am 04:53 Cloudy with Mist and Fog 66 18.9 65 18.3 96 96 N N/A 29.81 1010 6 10 0.01 0.25
5:17 am 05:17 Cloudy with Heavy Rain 67 19.4 65 18.3 93 93 N N/A 29.84 1010 2 3 0.06 1.52
5:25 am 05:25 Cloudy with Light Rain 67 19.4 65 18.3 93 93 N N/A 29.82 1010 3 5 0.07 1.78
5:53 am 05:53 Cloudy with Light Rain 67 19.4 65 18.3 93 93 N N/A 29.81 1009 5 8 0.07 1.78
6:16 am 06:16 Cloudy with Heavy Rain 66 18.9 64 17.8 93 93 VRB 3 6 29.84 1010 2 3 0.10 2.54
6:31 am 06:31 Cloudy with Light Rain 66 18.9 64 17.8 93 93 N N/A 29.83 1010 4 6 0.13 3.30
6:53 am 06:53 Cloudy with Light Rain 66 18.9 65 18.3 96 96 N N/A 29.81 1010 5 8 0.13 3.30
7:53 am 07:53 Cloudy with Mist and Fog 67 19.4 65 18.3 93 93 N N/A 29.81 1010 5 8 0.00 0.00
8:01 am 08:01 Cloudy with Mist and Fog 67 19.4 66 18.9 97 97 N N/A 29.82 1010 4 6 N/A
8:53 am 08:53 Cloudy 67 19.4 66 18.9 97 97 N N/A 29.81 1010 7 11 N/A
9:53 am 09:53 Cloudy 67 19.4 65 18.3 93 93 N N/A 29.81 1010 8 13 0.00 0.00
10:53 am 10:53 Cloudy with Light Rain 68 20 66 18.9 93 93 VRB 5 7 29.80 1009 7 11 0.03 0.76
11:08 am 11:08 Cloudy with Light Rain 68 20 66 18.9 93 93 WSW 5 7 29.80 1009 7 11 0.00 0.00
11:18 am 11:18 Cloudy 68 20 66 18.9 93 93 VRB 5 7 29.80 1009 10 16 0.00 0.00
11:53 am 11:53 Cloudy with Light Rain 68 20 66 18.9 93 93 VRB 3 6 29.80 1009 6 10 0.01 0.25
12:14 pm 12:14 Cloudy 68 20 66 18.9 93 93 W 6 9 29.80 1009 10 16 0.00 0.00
12:53 pm 12:53 Mostly Cloudy 69 20.6 66 18.9 90 90 WSW 5 7 29.79 1009 10 16 0.00 0.00
1:04 pm 13:04 Mostly Cloudy 69 20.6 66 18.9 90 90 SW 5 7 29.78 1009 10 16 N/A
1:21 pm 13:21 Mostly Cloudy 69 20.6 66 18.9 90 90 N N/A 29.78 1009 10 16 N/A
1:41 pm 13:41 Cloudy 70 21.1 67 19.4 90 90 VRB 3 6 29.77 1008 10 16 N/A
1:53 pm 13:53 Cloudy with Light Rain 69 20.6 67 19.4 93 93 VRB 3 6 29.78 1008 5 8 0.01 0.25
1:59 pm 13:59 Cloudy with Rain 68 20 66 18.9 93 93 VRB 5 7 29.78 1008 3 5 0.01 0.25
2:06 pm 14:06 Cloudy with Heavy Rain 65 18.3 63 17.2 93 93 N 13 20 29.79 1009 2 3 0.09 2.29
2:22 pm 14:22 Cloudy with Light Rain 63 17.2 60 15.6 90 90 N 8 13 29.79 1009 3 5 0.15 3.81
2:28 pm 14:28 Cloudy with Rain 63 17.2 60 15.6 90 90 N 8 13 29.79 1009 3 4 0.18 4.57
2:30 pm 14:30 Cloudy with Heavy Rain 62 16.7 60 15.6 93 93 N 8 13 29.79 1009 2 3 0.18 4.57
2:46 pm 14:46 Cloudy with Light Rain 63 17.2 60 15.6 90 90 N 6 9 29.79 1009 6 10 0.21 5.33
2:53 pm 14:53 Cloudy with Light Rain 63 17.2 60 15.6 90 90 NNE 6 9 29.79 1009 8 13 0.21 5.33
3:08 pm 15:08 Cloudy with Light Rain 63 17.2 60 15.6 90 90 VRB 6 9 29.79 1009 9 14 0.00 0.00
3:22 pm 15:22 Cloudy with Light Rain 63 17.2 59 15 87 87 NE 6 9 29.79 1009 7 11 0.01 0.25
3:53 pm 15:53 Cloudy with Light Rain 63 17.2 60 15.6 90 90 N 8 13 29.79 1009 10 16 0.01 0.25
4:53 pm 16:53 Cloudy with Light Rain 60 15.6 57 13.9 90 90 NNE 9 15 29.80 1009 8 13 0.01 0.25
5:15 pm 17:15 Cloudy with Light Rain 59 15 56 13.3 90 90 N 7 11 29.81 1009 6 10 0.01 0.25
5:53 pm 17:53 Cloudy with Light Rain 57 13.9 53 11.7 87 87 N 9 15 29.82 1010 10 16 0.02 0.51
6:53 pm 18:53 Cloudy with Rain 54 12.2 51 10.6 90 90 N 17 28 29.89 1012 3 5 0.08 2.03
6:55 pm 18:55 Cloudy with Rain 53 11.7 50 10 89 89 N 16 26 29.90 1013 3 4 0.01 0.25
6:58 pm 18:58 Cloudy with Rain 53 11.7 50 10 89 89 N 13 20 29.88 1012 3 5 0.01 0.25
7:07 pm 19:07 Cloudy with Rain 53 11.7 50 10 89 89 N 14 22 29.90 1013 2 3 0.05 1.27
7:14 pm 19:14 Cloudy with Rain 52 11.1 50 10 93 93 N 8 13 29.91 1013 3 5 0.06 1.52
7:38 pm 19:38 Cloudy with Light Rain 52 11.1 49 9.4 89 89 ENE 18 30 29.86 1011 4 6 0.09 2.29
7:53 pm 19:53 Cloudy with Light Rain 51 10.6 49 9.4 92 92 NE 14 22 29.83 1010 7 11 0.10 2.54
8:14 pm 20:14 Mostly Cloudy 52 11.1 49 9.4 89 89 ENE 14 22 29.86 1011 10 16 0.00 0.00
8:53 pm 20:53 Mostly Cloudy 51 10.6 48 8.9 89 89 E 13 20 29.85 1011 10 16 0.00 0.00
9:53 pm 21:53 Cloudy 52 11.1 48 8.9 86 86 N 6 9 29.89 1012 10 16 N/A
10:53 pm 22:53 Cloudy 51 10.6 47 8.3 86 86 N 9 15 29.93 1013 10 16 N/A
11:53 pm 23:53 Cloudy 50 10 45 7.2 83 83 N 10 17 29.95 1014 10 16 N/A

Powered by AerisWeather